SCP
0 0 0 0 0 0 -0 -0 -0 -0 0 0 0 0 0 0 0 0 0 0 0 0 0 0 1 1 1 1 0 0 0 0 0 0 0 0 0 0 0 0 0 0 0 0
0 0 0 0 0 0 0 0 0 0 0 0 0 0 0 0 0 0 0 0 0 0 0 1 1 1 1 1 1 0 0 0 0 0 0 0 0 0 0 0 0 0 0 0
0 0 0 0 0 0 0 0 0 0 0 0 0 0 0 0 0 0 0 0 0 0 0 1 1 1 1 1 1 1 0 0 0 0 0 0 0 0 0 0 0 0 0 0
0 0 0 0 0 0 0 0 0 0 0 0 0 0 0 0 0 0 0 0 0 0 0 1 1 1 1 1 1 1 0 0 0 0 0 0 0 0 0 0 0 0 0 0
0 0 0 0 0 0 0 0 0 0 0 0 0 0 0 0 0 0 0 0 0 0 0 1 1 1 1 1 1 1 0 0 0 0 0 0 0 0 0 0 0 0 0 0
0 0 0 0 0 0 0 0 0 0 0 0 0 0 0 0 0 0 0 0 0 0 1 1 1 1 1 1 1 1 0 0 0 0 0 0 0 0 0 0 0 0 0 0
0 0 0 0 0 0 0 0 0 0 0 0 0 0 0 0 0 0 0 0 0 0 1 1 2 2 1 1 1 1 1 0 0 0 0 0 0 0 0 0 0 0 0 0
1 0 0 0 0 0 0 0 0 0 0 0 0 0 0 0 0 0 0 0 0 0 1 1 2 2 2 1 1 1 1 0 0 0 0 0 0 0 0 0 0 0 0 0
1 0 0 0 0 0 0 0 0 0 0 0 0 0 0 0 0 0 0 0 0 0 0 1 1 1 1 1 1 1 1 1 1 0 0 0 0 0 0 0 0 0 0 0
0 0 0 0 0 0 0 0 0 0 0 0 0 0 0 0 0 0 0 0 0 0 0 0 0 1 1 1 1 1 1 1 1 0 0 0 0 0 0 0 0 0 0 0
0 0 0 0 0 0 0 0 0 0 0 0 -0 0 0 0 0 0 0 0 0 0 0 0 0 0 0 1 1 1 1 1 1 0 0 0 0 0 0 0 0 0 0 0
0 0 0 0 0 0 0 0 0 0 0 0 0 0 0 0 0 0 0 0 0 0 0 0 0 0 0 1 1 1 1 1 0 0 0 0 0 0 0 0 0 0 0 0
0 0 0 0 0 0 0 0 0 0 0 0 0 0 0 0 0 0 0 0 0 0 0 0 0 0 0 0 1 1 1 0 0 0 0 0 0 0 0 0 0 0 0 0
0 0 0 0 0 0 0 0 0 0 0 0 0 0 0 0 0 0 0 0 0 0 0 0 0 0 0 0 0 0 0 0 0 0 0 0 0 0 0 0 0 0 0 0
0 0 0 0 0 0 0 0 0 0 0 0 0 0 0 0 0 0 0 0 0 0 -0 -0 0 0 0 0 0 0 0 0 0 0 0 0 0 0 0 0 0 0 0 0
0 0 0 0 0 0 0 0 0 0 0 0 0 0 0 0 0 0 0 0 0 -0 -0 -0 -0 0 0 0 0 0 0 0 0 0 0 0 0 0 0 0 0 0 0 0
0 0 0 0 0 0 0 0 0 0 0 0 0 0 0 0 0 0 0 0 0 -0 -0 -0 -0 0 0 0 0 0 0 0 0 0 0 0 0 0 0 0 0 0 0 0
0 0 0 0 0 0 0 0 0 0 0 0 0 0 0 0 0 0 0 0 0 0 -0 -0 -0 -0 0 0 0 0 0 0 0 0 0 0 0 0 0 0 0 0 0 0
0 0 0 0 0 0 0 0 0 0 0 0 0 0 0 0 0 0 0 0 0 -0 -0 -0 -0 -0 0 0 0 0 0 0 0 0 0 0 0 0 0 0 0 0 0 0
0 0 0 0 0 0 0 0 0 0 0 0 0 0 0 0 0 0 0 -0 -0 -0 -0 -0 -0 -0 0 0 0 0 0 0 0 0 0 0 0 0 0 0 0 0 0 0
0 0 0 0 0 0 0 0 0 0 0 0 0 0 0 0 0 0 -0 -0 -0 -0 -0 0 0 0 0 0 0 0 0 0 0 0 0 0 0 0 0 0 0 0 0 0
0 0 0 0 0 0 0 0 0 0 0 0 0 0 0 0 0 0 0 0 0 0 0 0 0 0 0 0 0 0 0 0 0 0 0 0 0 0 0 0 0 0 0 0
0 0 -0 0 0 0 0 0 0 0 0 0 0 0 0 0 0 0 0 0 0 0 0 0 0 0 0 0 0 0 0 0 0 0 0 0 0 0 0 0 0 0 0 0
0 -0 -0 -0 0 0 0 0 0 0 0 0 0 0 0 0 0 0 0 0 0 0 0 0 0 0 0 0 0 0 0 0 0 0 0 0 0 0 0 0 0 0 0 0
-0 -0 -0 -0 0 0 0 0 0 0 0 0 0 0 0 0 0 0 0 0 0 0 0 0 0 0 0 0 0 0 0 0 0 0 0 0 0 0 0 0 0 0 0 0
-0 -0 -0 0 0 0 0 0 0 0 0 0 0 0 0 0 0 0 0 0 0 0 0 0 0 0 0 0 0 0 0 0 0 0 0 0 0 0 0 0 0 -0 -0 -0
-0 -0 -0 0 0 0 0 0 0 0 0 0 0 0 0 0 0 0 0 0 0 0 0 0 0 0 0 0 0 0 0 0 0 0 0 0 0 0 0 0 0 0 -0 -0
Wind_Speed
14 18 20 20 19 17 17 17 18 18 18 15 12 12 11 11 13 14 13 10 7 4 3 2 4 4 5 5 5 4 5 4 4 4 3 2 4 4 3 2 1 1 1 1
18 19 20 20 18 16 15 14 14 13 12 13 13 12 12 13 14 16 15 12 8 5 4 3 4 5 5 5 5 5 5 5 5 5 4 4 5 5 4 3 2 0 1 3
15 18 18 15 11 7 7 10 11 12 12 14 13 14 14 14 15 18 15 10 7 5 4 3 4 5 5 5 5 4 4 5 6 6 5 5 6 6 5 4 3 2 4 7
13 16 15 9 9 9 7 6 12 12 14 15 15 16 13 12 13 14 14 11 8 5 5 5 6 6 6 6 6 5 5 5 7 7 6 5 5 6 5 4 4 3 5 7
10 14 14 11 11 10 8 6 14 13 15 17 19 18 14 16 20 19 16 12 9 6 7 5 6 6 6 6 6 6 7 6 9 10 9 7 6 6 4 4 4 4 6 6
11 14 15 9 10 11 9 7 14 16 17 18 20 16 15 19 21 22 21 15 11 8 7 6 6 6 6 7 8 8 8 7 9 11 11 10 8 6 4 4 5 5 6 6
13 13 9 12 13 12 7 10 18 19 20 20 18 16 20 22 21 21 20 19 17 12 7 6 7 7 8 8 8 9 9 8 8 12 12 11 9 6 5 5 5 5 6 6
8 10 5 19 13 10 10 14 18 20 20 19 19 21 23 23 22 22 21 20 19 16 12 8 8 9 10 10 8 8 9 9 8 9 12 12 11 9 7 6 6 6 6 5
4 5 9 14 13 11 13 14 16 17 19 19 20 21 24 23 22 21 21 19 16 16 15 13 11 10 12 10 8 7 8 9 8 9 9 9 12 12 9 7 7 7 7 7
4 9 9 13 13 13 14 14 14 14 17 17 16 18 21 21 20 19 18 18 16 16 16 14 14 14 13 10 9 9 9 8 8 8 8 9 9 9 9 9 8 8 8 7
7 10 9 13 16 17 17 18 19 19 19 18 16 17 18 17 17 16 16 17 17 15 14 15 12 16 15 13 11 11 9 8 9 9 9 9 9 8 9 8 8 7 7 7
6 8 9 12 13 14 15 17 19 21 22 21 21 22 21 18 16 15 16 16 17 18 18 17 13 12 15 12 13 12 10 9 9 9 8 8 8 6 3 3 8 10 8 8
6 9 11 14 16 17 19 21 23 23 23 22 22 22 22 20 17 17 15 17 18 18 20 20 17 12 13 12 11 12 12 10 10 10 10 10 10 10 8 6 5 8 13 14
7 10 15 18 21 21 23 25 25 24 23 23 21 21 21 20 19 18 17 16 18 18 18 19 20 14 9 13 11 12 14 13 11 10 10 10 10 11 10 10 8 6 7 14
12 14 19 22 24 25 25 26 27 25 24 23 20 19 19 19 19 19 19 19 18 18 17 16 19 16 9 11 14 14 15 12 12 11 10 10 9 11 11 12 11 11 8 7
19 21 23 25 27 27 27 28 26 26 25 24 22 21 21 20 18 18 19 19 19 19 16 13 15 16 10 9 15 13 15 17 14 11 11 10 10 10 10 10 10 11 12 11
22 23 25 26 27 27 27 26 25 24 24 24 24 23 22 20 19 18 18 18 17 18 17 13 13 14 10 8 12 12 14 15 16 14 12 11 11 10 9 10 11 11 12 14
22 23 23 25 25 27 27 26 25 25 24 24 24 23 21 20 20 19 18 19 19 19 18 15 13 12 8 7 10 11 12 13 12 12 12 11 10 9 9 10 12 13 10 13
23 24 25 25 25 25 25 25 25 24 23 23 23 23 23 22 21 20 20 20 20 19 17 15 13 11 9 8 11 9 12 13 12 11 10 11 11 10 9 11 12 11 10 12
24 25 26 25 25 25 24 24 25 24 23 23 24 23 23 23 22 21 20 19 16 16 16 14 13 10 8 8 11 8 11 11 12 12 11 11 11 10 10 11 12 12 11 11
25 27 28 26 25 24 24 24 23 23 23 23 23 24 24 23 21 20 18 16 17 16 15 13 10 8 7 7 9 8 10 10 12 13 12 11 11 11 11 11 12 12 11 10
25 25 27 26 25 24 22 21 22 25 26 25 26 24 22 20 18 17 18 15 15 14 12 10 9 6 6 8 7 9 11 11 11 12 12 11 10 11 12 13 12 11 11 11
24 24 24 25 23 23 23 23 25 25 26 26 25 23 19 14 11 11 12 11 10 11 10 9 7 4 6 6 6 8 9 9 10 12 12 10 10 11 11 12 11 11 10 10
23 23 23 22 22 23 25 26 26 23 25 25 21 19 14 9 8 9 10 10 11 12 9 7 5 5 6 5 4 5 5 7 8 12 12 11 10 10 10 10 9 9 9 11
22 22 22 21 20 18 21 24 25 24 23 19 19 15 9 6 7 8 8 10 11 10 7 5 6 6 5 4 4 4 5 6 7 10 12 12 12 11 11 10 10 10 10 9
20 18 17 16 15 15 17 18 18 18 18 18 15 10 7 5 7 7 7 9 10 7 6 4 4 5 5 5 5 5 6 7 6 8 11 13 15 13 11 12 13 10 10 10
19 17 14 15 15 16 17 18 19 20 19 18 16 11 8 6 6 7 8 7 7 6 5 4 3 3 4 5 5 6 7 8 6 7 9 11 12 12 12 13 11 10 9 9
Wind_Direction
293 299 295 290 288 289 287 284 284 290 297 316 338 347 357 356 344 330 320 308 295 290 282 258 245 233 241 249 247 250 254 236 203 188 180 155 140 153 166 203 235 357 24 58
292 290 289 284 279 281 282 284 290 304 320 351 356 359 359 354 340 325 312 302 296 310 305 265 244 241 236 229 233 239 247 239 194 188 176 147 147 152 147 142 122 30 8 56
289 296 300 293 301 300 309 324 332 331 346 0 0 357 349 338 322 313 307 301 301 304 297 256 245 241 234 223 225 237 241 231 185 182 173 163 162 155 152 152 153 147 84 78
284 290 285 294 353 331 315 2 9 2 5 360 351 342 332 326 335 343 337 323 306 298 288 253 235 230 218 216 211 216 226 208 173 172 166 163 157 152 164 169 151 127 105 98
285 289 295 319 24 12 347 352 36 6 354 347 339 327 326 351 344 331 321 308 288 264 266 260 239 235 220 205 204 211 216 196 173 169 166 166 160 160 172 162 146 145 128 123
274 289 293 331 7 355 315 277 25 2 351 345 340 330 331 337 330 330 332 324 315 277 244 239 231 228 225 213 203 208 210 203 176 170 173 179 176 172 177 168 162 160 148 145
259 268 272 24 3 351 325 353 360 356 353 350 343 330 326 330 333 332 332 336 337 321 269 237 220 211 219 223 213 203 203 206 186 175 179 185 183 181 180 181 177 170 160 154
298 296 331 21 34 34 3 359 5 1 356 350 342 335 332 332 331 331 332 336 340 338 326 287 241 215 215 218 215 202 200 204 200 181 185 188 187 189 189 187 177 167 160 155
356 51 74 52 52 33 18 10 5 356 345 343 341 337 331 327 326 325 328 330 333 331 330 319 286 243 222 213 207 208 204 200 198 188 193 183 183 187 186 187 188 178 171 170
340 76 69 56 33 18 10 356 345 336 327 327 327 322 316 313 315 317 320 320 321 324 324 327 324 285 244 220 202 206 209 197 187 184 183 178 180 182 184 187 192 186 183 183
356 19 358 15 5 353 343 334 326 320 312 305 298 292 292 294 300 306 310 311 313 311 311 311 327 319 272 228 207 205 204 195 184 185 180 178 182 184 193 191 191 188 188 175
9 5 336 330 329 319 310 304 300 299 301 302 306 304 300 296 295 297 302 307 308 309 310 311 312 327 308 257 214 201 200 195 188 184 177 177 173 154 67 172 190 200 181 157
354 332 312 300 294 292 291 292 294 295 297 299 298 295 296 296 293 291 291 295 298 303 307 309 310 314 327 298 244 209 201 192 188 185 182 181 171 163 148 96 91 146 148 143
315 298 292 294 297 297 295 295 294 292 290 287 287 287 290 293 295 298 297 291 291 293 298 303 305 306 325 333 287 232 208 193 188 188 185 183 171 169 165 160 155 136 125 137
303 298 298 304 307 310 312 312 311 309 307 305 301 296 297 298 302 306 307 303 296 291 292 299 302 303 311 341 319 257 215 199 192 189 183 181 177 175 174 172 172 159 138 131
317 320 322 322 321 320 320 319 317 314 312 310 307 305 301 297 296 298 299 301 299 294 290 291 295 298 303 330 331 278 221 201 188 187 182 178 182 184 181 175 174 166 163 161
329 328 327 324 321 319 318 316 314 312 311 310 308 305 300 296 293 291 292 295 297 294 288 283 285 291 297 318 325 280 224 198 189 188 187 181 180 185 183 175 176 173 171 171
326 323 321 321 321 319 317 316 315 313 311 310 309 307 304 301 297 297 297 295 295 293 288 279 276 281 287 304 310 273 226 194 189 190 184 181 177 182 183 177 178 178 173 166
325 321 321 323 323 319 317 316 313 312 312 311 310 309 307 305 303 303 303 297 294 291 287 280 272 272 276 289 300 265 225 195 182 188 184 174 175 182 181 173 173 175 175 167
322 321 321 321 321 319 316 314 315 313 313 312 307 302 297 295 294 293 294 290 284 284 287 285 283 279 277 290 293 258 222 198 182 185 186 181 183 183 178 174 177 180 181 177
323 323 323 321 320 318 316 317 317 315 315 312 305 298 294 291 288 286 284 283 283 284 285 284 278 273 275 290 285 250 225 208 186 182 185 183 181 180 179 182 184 187 189 187
324 323 323 322 321 321 325 327 324 320 315 309 303 297 291 287 283 279 274 272 276 280 281 280 276 265 269 289 267 234 221 211 189 179 183 183 179 179 178 183 187 191 197 192
322 323 325 325 328 334 335 331 324 319 313 310 306 301 293 282 276 272 274 274 280 289 289 287 282 257 278 277 248 223 211 211 192 176 178 179 177 181 184 186 188 190 193 189
324 328 329 333 341 341 333 327 321 316 312 311 307 304 298 286 275 266 267 275 281 286 288 288 252 242 267 258 238 213 204 215 193 175 178 181 180 181 185 191 194 191 190 192
330 331 335 343 346 338 327 322 319 317 317 316 314 314 306 281 274 279 284 287 289 284 284 270 229 236 255 249 223 211 217 221 200 179 177 181 186 187 188 194 197 193 194 199
337 335 340 344 342 330 323 321 318 318 320 321 322 323 319 299 284 280 280 285 296 295 290 277 226 224 242 233 217 225 240 231 213 196 182 180 188 192 193 195 198 201 200 200
336 337 339 339 335 330 324 320 318 319 322 324 328 327 321 306 292 288 290 294 298 303 293 270 229 220 229 218 210 229 240 231 218 205 190 184 186 190 192 192 196 200 207 208